| time (UTC) | temp F | wind direction | speed MPH | gust MPH | rain 1hr in | rain 24hr in | rain mn in | humidity % | barometer mb |
| 20260503235525 | 64 | 196 | 3.0 | 12.0 | 0.00 | 0.00 | 0.00 | 47 | 1015.1 |
| 20260503235026 | 64 | 192 | 4.0 | 12.0 | 0.00 | 0.00 | 0.00 | 47 | 1015.2 |
| 20260503234552 | 64 | 211 | 3.0 | 12.0 | 0.00 | 0.00 | 0.00 | 46 | 1015.2 |
| 20260503234029 | 64 | 203 | 3.0 | 12.0 | 0.00 | 0.00 | 0.00 | 46 | 1015.3 |
| 20260503233528 | 64 | 174 | 4.0 | 12.0 | 0.00 | 0.00 | 0.00 | 46 | 1015.3 |
| 20260503233041 | 64 | 188 | 4.0 | 9.0 | 0.00 | 0.00 | 0.00 | 45 | 1015.4 |
| 20260503232530 | 65 | 243 | 4.0 | 9.0 | 0.00 | 0.00 | 0.00 | 45 | 1015.4 |
| 20260503232029 | 65 | 184 | 4.0 | 9.0 | 0.00 | 0.00 | 0.00 | 45 | 1015.5 |
| 20260503231540 | 65 | 219 | 2.0 | 11.0 | 0.00 | 0.00 | 0.00 | 45 | 1015.7 |
| 20260503231030 | 65 | 180 | 3.0 | 11.0 | 0.00 | 0.00 | 0.00 | 45 | 1015.8 |
| 20260503230532 | 65 | 259 | 4.0 | 10.0 | 0.00 | 0.00 | 0.00 | 44 | 1015.9 |
| 20260503230050 | 65 | 219 | 3.0 | 9.0 | 0.00 | 0.00 | 0.00 | 44 | 1016.1 |
| 20260503225528 | 65 | 232 | 4.0 | 9.0 | 0.00 | 0.00 | 0.00 | 44 | 1016.1 |
| 20260503225029 | 65 | 278 | 4.0 | 9.0 | 0.00 | 0.00 | 0.00 | 42 | 1016.1 |
| 20260503224547 | 65 | 231 | 2.0 | 9.0 | 0.00 | 0.00 | 0.00 | 43 | 1016.2 |
| 20260503224028 | 65 | 0 | 3.0 | 9.0 | 0.00 | 0.00 | 0.00 | 41 | 1016.1 |
| 20260503223528 | 66 | 263 | 3.0 | 10.0 | 0.00 | 0.00 | 0.00 | 42 | 1016.2 |
| 20260503223044 | 66 | 288 | 3.0 | 17.0 | 0.00 | 0.00 | 0.00 | 42 | 1016.3 |
| 20260503222529 | 66 | 289 | 3.0 | 17.0 | 0.00 | 0.00 | 0.00 | 42 | 1016.4 |
| 20260503222029 | 66 | 235 | 3.0 | 10.0 | 0.00 | 0.00 | 0.00 | 39 | 1016.4 |
| 20260503221551 | 67 | 202 | 3.0 | 10.0 | 0.00 | 0.00 | 0.00 | 40 | 1016.3 |
| 20260503221026 | 67 | 223 | 4.0 | 10.0 | 0.00 | 0.00 | 0.00 | 40 | 1016.4 |
| 20260503220527 | 67 | 204 | 4.0 | 9.0 | 0.00 | 0.00 | 0.00 | 41 | 1016.4 |
| 20260503220042 | 67 | 188 | 3.0 | 8.0 | 0.00 | 0.00 | 0.00 | 41 | 1016.5 |
| 20260503215527 | 68 | 242 | 3.0 | 12.0 | 0.00 | 0.02 | 0.00 | 41 | 1016.4 |
| 20260503215029 | 68 | 227 | 4.0 | 13.0 | 0.00 | 0.02 | 0.00 | 41 | 1016.5 |
| 20260503214542 | 69 | 242 | 3.0 | 13.0 | 0.00 | 0.02 | 0.00 | 41 | 1016.5 |
| 20260503214028 | 69 | 240 | 5.0 | 13.0 | 0.00 | 0.02 | 0.00 | 40 | 1016.6 |
| 20260503213530 | 70 | 196 | 3.0 | 8.0 | 0.00 | 0.02 | 0.00 | 39 | 1016.7 |
| 20260503213045 | 70 | 230 | 5.0 | 8.0 | 0.00 | 0.02 | 0.00 | 39 | 1016.9 |
| 20260503212529 | 70 | 237 | 2.0 | 12.0 | 0.00 | 0.02 | 0.00 | 40 | 1016.9 |
| 20260503212030 | 70 | 221 | 4.0 | 12.0 | 0.00 | 0.02 | 0.00 | 39 | 1017.3 |
| 20260503211554 | 70 | 229 | 2.0 | 13.0 | 0.00 | 0.02 | 0.00 | 41 | 1017.4 |
| 20260503211029 | 70 | 242 | 3.0 | 13.0 | 0.00 | 0.02 | 0.00 | 40 | 1017.3 |
| 20260503210530 | 70 | 229 | 4.0 | 10.0 | 0.00 | 0.02 | 0.00 | 40 | 1017.4 |
| 20260503210043 | 70 | 183 | 3.0 | 11.0 | 0.00 | 0.02 | 0.00 | 41 | 1017.4 |
| 20260503205530 | 70 | 309 | 2.0 | 12.0 | 0.00 | 0.02 | 0.00 | 43 | 1017.5 |
| 20260503205029 | 70 | 253 | 5.0 | 14.0 | 0.00 | 0.02 | 0.00 | 41 | 1017.5 |
| 20260503204549 | 70 | 231 | 6.0 | 14.0 | 0.00 | 0.02 | 0.00 | 39 | 1017.7 |
| 20260503204029 | 70 | 273 | 2.0 | 7.0 | 0.00 | 0.02 | 0.00 | 43 | 1017.8 |
| 20260503203529 | 70 | 207 | 2.0 | 7.0 | 0.00 | 0.02 | 0.00 | 43 | 1017.9 |
| 20260503203057 | 70 | 286 | 3.0 | 7.0 | 0.00 | 0.02 | 0.00 | 41 | 1018.0 |
| 20260503202531 | 70 | 304 | 2.0 | 7.0 | 0.00 | 0.02 | 0.00 | 40 | 1018.2 |
| 20260503202029 | 70 | 300 | 1.0 | 7.0 | 0.00 | 0.02 | 0.00 | 42 | 1018.0 |
| 20260503201541 | 69 | 248 | 2.0 | 9.0 | 0.00 | 0.02 | 0.00 | 48 | 1018.3 |
| 20260503201030 | 70 | 214 | 3.0 | 9.0 | 0.00 | 0.02 | 0.00 | 39 | 1018.4 |
| 20260503200528 | 70 | 253 | 1.0 | 7.0 | 0.00 | 0.02 | 0.00 | 41 | 1018.5 |
| 20260503200049 | 69 | 186 | 2.0 | 7.0 | 0.00 | 0.02 | 0.00 | 42 | 1018.7 |
| 20260503195528 | 69 | 221 | 3.0 | 7.0 | 0.00 | 0.02 | 0.00 | 42 | 1018.7 |
| 20260503195028 | 69 | 199 | 2.0 | 6.0 | 0.00 | 0.02 | 0.00 | 44 | 1018.9 |
| 20260503194553 | 69 | 209 | 2.0 | 7.0 | 0.00 | 0.02 | 0.00 | 42 | 1019.0 |
| 20260503194028 | 68 | 190 | 3.0 | 11.0 | 0.00 | 0.02 | 0.00 | 43 | 1019.0 |
| 20260503193529 | 68 | 188 | 5.0 | 11.0 | 0.00 | 0.02 | 0.00 | 43 | 1019.0 |
| 20260503193050 | 68 | 211 | 4.0 | 11.0 | 0.00 | 0.02 | 0.00 | 42 | 1019.2 |
| 20260503192529 | 68 | 220 | 4.0 | 11.0 | 0.00 | 0.02 | 0.00 | 44 | 1019.3 |
| 20260503192028 | 68 | 251 | 4.0 | 9.0 | 0.00 | 0.02 | 0.00 | 45 | 1019.5 |
| 20260503191543 | 68 | 225 | 1.0 | 12.0 | 0.00 | 0.02 | 0.00 | 46 | 1019.4 |
| 20260503191029 | 67 | 194 | 4.0 | 12.0 | 0.00 | 0.02 | 0.00 | 42 | 1019.6 |
| 20260503190530 | 67 | 161 | 2.0 | 10.0 | 0.00 | 0.02 | 0.00 | 44 | 1019.5 |
| 20260503190044 | 67 | 184 | 2.0 | 10.0 | 0.00 | 0.02 | 0.00 | 47 | 1019.6 |
| 20260503185526 | 67 | 220 | 5.0 | 10.0 | 0.00 | 0.02 | 0.00 | 47 | 1019.7 |
| 20260503185029 | 67 | 194 | 2.0 | 7.0 | 0.00 | 0.02 | 0.00 | 43 | 1019.8 |
| 20260503184540 | 66 | 257 | 3.0 | 8.0 | 0.00 | 0.02 | 0.00 | 48 | 1019.8 |
| 20260503184029 | 66 | 309 | 2.0 | 9.0 | 0.00 | 0.02 | 0.00 | 45 | 1019.8 |
| 20260503183529 | 65 | 198 | 3.0 | 9.0 | 0.00 | 0.02 | 0.00 | 46 | 1019.8 |
| 20260503183042 | 65 | 182 | 2.0 | 11.0 | 0.00 | 0.02 | 0.00 | 41 | 1020.0 |
| 20260503182528 | 65 | 223 | 3.0 | 12.0 | 0.00 | 0.02 | 0.00 | 45 | 1020.1 |
| 20260503182025 | 65 | 192 | 6.0 | 12.0 | 0.00 | 0.02 | 0.00 | 42 | 1020.1 |
| 20260503181600 | 65 | 169 | 1.0 | 6.0 | 0.00 | 0.02 | 0.00 | 49 | 1020.2 |
| 20260503181025 | 65 | 236 | 3.0 | 6.0 | 0.00 | 0.02 | 0.00 | 39 | 1020.2 |
| 20260503180527 | 65 | 254 | 1.0 | 7.0 | 0.00 | 0.02 | 0.00 | 53 | 1020.3 |
| 20260503180046 | 65 | 184 | 2.0 | 7.0 | 0.00 | 0.02 | 0.00 | 44 | 1020.4 |
| 20260503175528 | 65 | 221 | 2.0 | 6.0 | 0.00 | 0.02 | 0.00 | 44 | 1020.3 |
| 20260503175029 | 65 | 230 | 1.0 | 10.0 | 0.00 | 0.02 | 0.00 | 43 | 1020.3 |
| 20260503174543 | 65 | 225 | 2.0 | 10.0 | 0.00 | 0.02 | 0.00 | 49 | 1020.5 |
| 20260503174027 | 65 | 264 | 3.0 | 10.0 | 0.00 | 0.02 | 0.00 | 47 | 1020.5 |
| 20260503173527 | 65 | 130 | 1.0 | 10.0 | 0.00 | 0.02 | 0.00 | 49 | 1020.5 |
| 20260503173053 | 65 | 253 | 4.0 | 10.0 | 0.00 | 0.02 | 0.00 | 49 | 1020.6 |
| 20260503172526 | 65 | 210 | 3.0 | 9.0 | 0.00 | 0.02 | 0.00 | 47 | 1020.7 |
| 20260503172027 | 64 | 181 | 1.0 | 9.0 | 0.00 | 0.02 | 0.00 | 47 | 1020.8 |
| 20260503171541 | 64 | 157 | 2.0 | 9.0 | 0.00 | 0.02 | 0.00 | 48 | 1020.8 |
| 20260503171028 | 64 | 169 | 3.0 | 9.0 | 0.00 | 0.02 | 0.00 | 50 | 1020.9 |
| 20260503170531 | 63 | 211 | 2.0 | 8.0 | 0.00 | 0.02 | 0.00 | 46 | 1020.9 |
| 20260503150529 | 60 | 229 | 2.0 | 8.0 | 0.00 | 0.02 | 0.00 | 45 | 1021.9 |
| 20260503131029 | 53 | 172 | 0.0 | 4.0 | 0.00 | 0.02 | 0.00 | 81 | 1021.7 |
| 20260503130527 | 52 | 0 | 0.0 | 3.0 | 0.00 | 0.02 | 0.00 | 84 | 1021.7 |
| 20260503110526 | 34 | 0 | 0.0 | 0.0 | 0.00 | 0.02 | 0.00 | 96 | 1020.7 |
| 20260503081541 | 37 | 0 | 0.0 | 0.0 | 0.00 | 0.02 | 0.00 | 96 | 1020.4 |
| 20260503081027 | 37 | 0 | 0.0 | 0.0 | 0.00 | 0.02 | 0.00 | 96 | 1020.4 |
| 20260503080530 | 37 | 0 | 0.0 | 0.0 | 0.00 | 0.02 | 0.00 | 95 | 1020.4 |
| 20260503072526 | 38 | 0 | 0.0 | 0.0 | 0.00 | 0.02 | 0.00 | 96 | 1020.3 |
| 20260503072029 | 38 | 0 | 0.0 | 0.0 | 0.00 | 0.02 | 0.00 | 96 | 1020.2 |
| 20260503071554 | 38 | 0 | 0.0 | 0.0 | 0.00 | 0.02 | 0.00 | 96 | 1020.2 |
| 20260503071030 | 38 | 0 | 0.0 | 0.0 | 0.00 | 0.02 | 0.00 | 96 | 1020.1 |
| 20260503070529 | 38 | 0 | 0.0 | 0.0 | 0.00 | 0.02 | 0.00 | 96 | 1020.3 |
| 20260503060104 | 40 | 0 | 0.0 | 0.0 | 0.00 | 0.02 | 0.00 | 95 | 1020.3 |
| 20260503055029 | 40 | 0 | 0.0 | 0.0 | 0.00 | 0.02 | 0.00 | 95 | 1020.2 |
| 20260503054546 | 40 | 0 | 0.0 | 0.0 | 0.00 | 0.02 | 0.00 | 95 | 1020.3 |
| 20260503054029 | 40 | 0 | 0.0 | 0.0 | 0.00 | 0.02 | 0.00 | 95 | 1020.3 |
| 20260503053529 | 40 | 0 | 0.0 | 0.0 | 0.00 | 0.02 | 0.00 | 95 | 1020.2 |
| 20260503053044 | 40 | 0 | 0.0 | 0.0 | 0.00 | 0.02 | 0.00 | 96 | 1020.2 |
| 20260503052527 | 41 | 0 | 0.0 | 0.0 | 0.00 | 0.02 | 0.00 | 96 | 1020.3 |
| 20260503052029 | 40 | 0 | 0.0 | 0.0 | 0.00 | 0.02 | 0.00 | 96 | 1020.2 |
| 20260503051543 | 40 | 0 | 0.0 | 0.0 | 0.00 | 0.02 | 0.00 | 95 | 1020.2 |
| 20260503051028 | 40 | 0 | 0.0 | 0.0 | 0.00 | 0.02 | 0.00 | 95 | 1020.2 |
| 20260503050527 | 40 | 0 | 0.0 | 0.0 | 0.00 | 0.02 | 0.00 | 95 | 1020.2 |
| 20260503050041 | 40 | 0 | 0.0 | 0.0 | 0.00 | 0.02 | 0.00 | 95 | 1020.1 |
| 20260503045532 | 40 | 0 | 0.0 | 0.0 | 0.00 | 0.02 | 0.02 | 95 | 1020.1 |
| 20260503045030 | 41 | 0 | 0.0 | 0.0 | 0.00 | 0.02 | 0.02 | 95 | 1020.2 |
| 20260503044548 | 40 | 0 | 0.0 | 0.0 | 0.00 | 0.02 | 0.02 | 95 | 1020.1 |
| 20260503044027 | 40 | 0 | 0.0 | 0.0 | 0.00 | 0.02 | 0.02 | 95 | 1020.0 |
| 20260503043529 | 41 | 0 | 0.0 | 0.0 | 0.00 | 0.02 | 0.02 | 95 | 1019.8 |
| 20260503043054 | 41 | 0 | 0.0 | 0.0 | 0.00 | 0.02 | 0.02 | 95 | 1019.9 |
| 20260503042529 | 41 | 0 | 0.0 | 0.0 | 0.00 | 0.02 | 0.02 | 95 | 1019.9 |
| 20260503042027 | 41 | 0 | 0.0 | 0.0 | 0.00 | 0.02 | 0.02 | 95 | 1019.9 |
| 20260503041546 | 41 | 0 | 0.0 | 0.0 | 0.00 | 0.02 | 0.02 | 95 | 1019.8 |
| 20260503041033 | 41 | 0 | 0.0 | 0.0 | 0.00 | 0.02 | 0.02 | 94 | 1019.7 |
| 20260503040530 | 41 | 0 | 0.0 | 0.0 | 0.00 | 0.02 | 0.02 | 94 | 1019.8 |
| 20260503040051 | 41 | 0 | 0.0 | 0.0 | 0.00 | 0.02 | 0.02 | 94 | 1019.8 |
| 20260503035529 | 41 | 0 | 0.0 | 0.0 | 0.00 | 0.02 | 0.02 | 94 | 1019.8 |
| 20260503035029 | 41 | 0 | 0.0 | 0.0 | 0.00 | 0.02 | 0.02 | 94 | 1019.8 |
| 20260503034541 | 41 | 0 | 0.0 | 0.0 | 0.00 | 0.02 | 0.02 | 94 | 1019.7 |
| 20260503034029 | 41 | 0 | 0.0 | 0.0 | 0.00 | 0.02 | 0.02 | 94 | 1019.7 |
| 20260503033529 | 41 | 0 | 0.0 | 0.0 | 0.00 | 0.02 | 0.02 | 93 | 1019.8 |
| 20260503033102 | 41 | 0 | 0.0 | 0.0 | 0.00 | 0.02 | 0.02 | 93 | 1019.8 |
| 20260503032529 | 41 | 0 | 0.0 | 0.0 | 0.00 | 0.02 | 0.02 | 93 | 1019.6 |
| 20260503032029 | 42 | 0 | 0.0 | 0.0 | 0.00 | 0.02 | 0.02 | 94 | 1019.7 |
| 20260503031548 | 42 | 0 | 0.0 | 0.0 | 0.00 | 0.02 | 0.02 | 93 | 1019.6 |
| 20260503031030 | 42 | 0 | 0.0 | 0.0 | 0.00 | 0.02 | 0.02 | 93 | 1019.5 |
| 20260503030529 | 42 | 0 | 0.0 | 0.0 | 0.00 | 0.02 | 0.02 | 93 | 1019.5 |
| 20260503030046 | 42 | 0 | 0.0 | 0.0 | 0.00 | 0.02 | 0.02 | 93 | 1019.5 |
| 20260503025529 | 42 | 0 | 0.0 | 0.0 | 0.00 | 0.02 | 0.02 | 93 | 1019.3 |
| 20260503025028 | 42 | 0 | 0.0 | 0.0 | 0.00 | 0.02 | 0.02 | 93 | 1019.2 |
| 20260503024544 | 43 | 0 | 0.0 | 0.0 | 0.00 | 0.02 | 0.02 | 93 | 1019.2 |
| 20260503024029 | 43 | 0 | 0.0 | 0.0 | 0.00 | 0.02 | 0.02 | 93 | 1019.2 |
| 20260503023526 | 43 | 0 | 0.0 | 0.0 | 0.00 | 0.02 | 0.02 | 92 | 1019.2 |
| 20260503023052 | 43 | 0 | 0.0 | 0.0 | 0.00 | 0.02 | 0.02 | 92 | 1019.2 |
| 20260503022529 | 43 | 0 | 0.0 | 0.0 | 0.00 | 0.02 | 0.02 | 92 | 1019.2 |
| 20260503022031 | 43 | 0 | 0.0 | 0.0 | 0.00 | 0.02 | 0.02 | 92 | 1019.0 |
| 20260503021551 | 44 | 0 | 0.0 | 0.0 | 0.00 | 0.02 | 0.02 | 91 | 1019.1 |
| 20260503021030 | 44 | 0 | 0.0 | 0.0 | 0.00 | 0.02 | 0.02 | 91 | 1019.0 |
| 20260503020529 | 44 | 0 | 0.0 | 0.0 | 0.00 | 0.02 | 0.02 | 91 | 1019.0 |
| 20260503020048 | 44 | 0 | 0.0 | 0.0 | 0.00 | 0.02 | 0.02 | 90 | 1019.0 |
| 20260503015526 | 45 | 0 | 0.0 | 0.0 | 0.00 | 0.02 | 0.02 | 90 | 1018.9 |
| 20260503015030 | 45 | 0 | 0.0 | 0.0 | 0.00 | 0.02 | 0.02 | 89 | 1018.9 |
| 20260503014548 | 45 | 0 | 0.0 | 0.0 | 0.00 | 0.02 | 0.02 | 89 | 1018.9 |
| 20260503014029 | 45 | 0 | 0.0 | 0.0 | 0.00 | 0.02 | 0.02 | 88 | 1018.8 |
| 20260503013530 | 46 | 0 | 0.0 | 0.0 | 0.00 | 0.02 | 0.02 | 88 | 1018.9 |
| 20260503013045 | 46 | 0 | 0.0 | 1.0 | 0.00 | 0.02 | 0.02 | 87 | 1018.8 |
| 20260503012529 | 46 | 0 | 0.0 | 1.0 | 0.00 | 0.02 | 0.02 | 87 | 1018.8 |
| 20260503012030 | 47 | 0 | 0.0 | 1.0 | 0.00 | 0.02 | 0.02 | 87 | 1018.8 |
| 20260503011557 | 47 | 0 | 0.0 | 0.0 | 0.00 | 0.02 | 0.02 | 86 | 1018.7 |
| 20260503011029 | 47 | 0 | 0.0 | 0.0 | 0.00 | 0.02 | 0.02 | 85 | 1018.6 |
| 20260503010529 | 48 | 0 | 0.0 | 0.0 | 0.00 | 0.02 | 0.02 | 83 | 1018.6 |
| 20260503010051 | 48 | 0 | 0.0 | 1.0 | 0.00 | 0.02 | 0.02 | 83 | 1018.6 |
| 20260503005530 | 48 | 0 | 0.0 | 1.0 | 0.00 | 0.02 | 0.02 | 82 | 1018.6 |
| 20260503005030 | 49 | 338 | 0.0 | 1.0 | 0.00 | 0.02 | 0.02 | 81 | 1018.5 |
| 20260503004548 | 49 | 0 | 0.0 | 2.0 | 0.00 | 0.02 | 0.02 | 81 | 1018.5 |
| 20260503004029 | 49 | 0 | 0.0 | 2.0 | 0.00 | 0.02 | 0.02 | 80 | 1018.4 |
| 20260503003529 | 50 | 0 | 0.0 | 2.0 | 0.00 | 0.02 | 0.02 | 79 | 1018.5 |
| 20260503003049 | 50 | 340 | 0.0 | 2.0 | 0.00 | 0.02 | 0.02 | 79 | 1018.4 |
| 20260503002529 | 50 | 340 | 0.0 | 3.0 | 0.00 | 0.02 | 0.02 | 78 | 1018.5 |
| 20260503002029 | 50 | 343 | 0.0 | 3.0 | 0.00 | 0.02 | 0.02 | 78 | 1018.3 |
| 20260503001547 | 51 | 339 | 0.0 | 5.0 | 0.00 | 0.02 | 0.02 | 78 | 1018.3 |
| 20260503001029 | 51 | 347 | 1.0 | 5.0 | 0.00 | 0.02 | 0.02 | 77 | 1018.2 |
| 20260503000529 | 51 | 328 | 3.0 | 8.0 | 0.00 | 0.02 | 0.02 | 76 | 1018.0 |
| 20260503000059 | 51 | 342 | 1.0 | 10.0 | 0.00 | 0.02 | 0.02 | 76 | 1018.0 |